Location: Aulagny
(45.1643°N, 4.3096°E)
Time: 12:21:18
(UTC+00:00)

Cosmos 1300 - Pass Details

Date: 21 October 2019
Orbit: 511 x 515 km, 82.5° (Epoch: 13 November)

Event Time Altitude Azimuth Distance (km) Brightness Sun altitude
Rises 17:47:10 0° 160° (SSE) 2,619 6.1 -11.1°
Reaches altitude 10° 17:49:30 10° 147° (SSE) 1,737 5.1 -11.5°
Maximum altitude 17:52:42 26° 90° (E) 1,040 3.6 -12.1°
Drops below altitude 10° 17:55:56 10° 33° (NNE) 1,748 5.0 -12.6°
Sets 17:58:18 0° 21° (NNE) 2,640 6.1 -13.0°
